TimePDT,TemperatureF,Dew PointF,Humidity,Sea Level PressureIn,VisibilityMPH,Wind Direction,Wind SpeedMPH,Gust SpeedMPH,PrecipitationIn,Events,Conditions,WindDirDegrees,DateUTC
12:15 AM,57.2,24.8,29,30.21,10.0,WNW,10.4,16.1,N/A,,Clear,290,2013-06-12 07:15:00
12:35 AM,55.4,26.6,33,30.20,10.0,Calm,Calm,-,N/A,,Clear,0,2013-06-12 07:35:00
12:55 AM,55.4,26.6,33,30.20,10.0,WSW,8.1,-,N/A,,Clear,240,2013-06-12 07:55:00
1:15 AM,55.4,26.6,33,30.20,10.0,SW,8.1,19.6,N/A,,Clear,230,2013-06-12 08:15:00
1:35 AM,57.2,24.8,29,30.20,10.0,West,6.9,-,N/A,,Clear,280,2013-06-12 08:35:00
1:55 AM,55.4,30.2,38,30.20,10.0,WNW,5.8,-,N/A,,Clear,300,2013-06-12 08:55:00
2:15 AM,53.6,32.0,44,30.19,10.0,ESE,6.9,-,N/A,,Clear,110,2013-06-12 09:15:00
2:35 AM,51.8,32.0,47,30.18,10.0,East,4.6,-,N/A,,Clear,80,2013-06-12 09:35:00
2:55 AM,51.8,32.0,47,30.19,10.0,South,6.9,-,N/A,,Clear,180,2013-06-12 09:55:00
3:15 AM,51.8,32.0,47,30.18,10.0,ESE,6.9,-,N/A,,Clear,120,2013-06-12 10:15:00
3:35 AM,51.8,32.0,47,30.18,10.0,SE,5.8,-,N/A,,Clear,140,2013-06-12 10:35:00
3:55 AM,53.6,30.2,41,30.18,10.0,NE,4.6,-,N/A,,Clear,50,2013-06-12 10:55:00
4:15 AM,51.8,32.0,47,30.18,10.0,Calm,Calm,-,N/A,,Clear,0,2013-06-12 11:15:00
4:35 AM,50.0,32.0,50,30.18,10.0,South,8.1,17.3,N/A,,Clear,180,2013-06-12 11:35:00
4:55 AM,53.6,30.2,41,30.18,10.0,ESE,4.6,-,N/A,,Clear,120,2013-06-12 11:55:00
5:15 AM,51.8,30.2,44,30.18,10.0,NE,4.6,18.4,N/A,,Clear,50,2013-06-12 12:15:00
5:35 AM,53.6,30.2,41,30.18,10.0,SSE,8.1,-,N/A,,Clear,160,2013-06-12 12:35:00
5:55 AM,53.6,30.2,41,30.19,10.0,ENE,5.8,-,N/A,,Clear,70,2013-06-12 12:55:00
6:15 AM,55.4,28.4,36,30.19,10.0,South,10.4,17.3,N/A,,Clear,190,2013-06-12 13:15:00
6:35 AM,57.2,30.2,36,30.19,10.0,SW,3.5,-,N/A,,Clear,220,2013-06-12 13:35:00
6:55 AM,62.6,26.6,26,30.19,10.0,SW,13.8,19.6,N/A,,Clear,220,2013-06-12 13:55:00
7:15 AM,64.4,24.8,22,30.19,10.0,SW,9.2,21.9,N/A,,Clear,230,2013-06-12 14:15:00
7:35 AM,66.2,24.8,21,30.19,10.0,WSW,17.3,23.0,N/A,,Clear,240,2013-06-12 14:35:00
7:55 AM,66.2,24.8,21,30.18,10.0,SW,17.3,26.5,N/A,,Clear,220,2013-06-12 14:55:00
8:15 AM,68.0,23.0,18,30.18,10.0,SW,23.0,29.9,N/A,,Clear,230,2013-06-12 15:15:00
8:35 AM,68.0,23.0,18,30.19,10.0,SW,20.7,31.1,N/A,,Clear,220,2013-06-12 15:35:00
8:55 AM,68.0,23.0,18,30.18,10.0,SW,18.4,27.6,N/A,,Clear,230,2013-06-12 15:55:00
9:15 AM,69.8,21.2,16,30.18,10.0,WSW,17.3,39.1,N/A,,Clear,240,2013-06-12 16:15:00
9:35 AM,71.6,19.4,14,30.19,10.0,WSW,21.9,28.8,N/A,,Clear,240,2013-06-12 16:35:00
9:55 AM,71.6,19.4,14,30.18,10.0,SSW,18.4,39.1,N/A,,Clear,210,2013-06-12 16:55:00
10:15 AM,71.6,19.4,14,30.19,10.0,SW,19.6,33.4,N/A,,Clear,220,2013-06-12 17:15:00
10:35 AM,71.6,21.2,15,30.20,10.0,SSW,17.3,31.1,N/A,,Clear,200,2013-06-12 17:35:00
10:55 AM,73.4,21.2,14,30.20,10.0,WSW,19.6,31.1,N/A,,Clear,250,2013-06-12 17:55:00
11:15 AM,73.4,19.4,13,30.21,10.0,SW,15.0,27.6,N/A,,Clear,220,2013-06-12 18:15:00
11:35 AM,73.4,21.2,14,30.21,10.0,WSW,18.4,34.5,N/A,,Clear,240,2013-06-12 18:35:00
11:55 AM,75.2,21.2,13,30.21,10.0,West,19.6,27.6,N/A,,Clear,260,2013-06-12 18:55:00
12:15 PM,75.2,21.2,13,30.20,10.0,SW,16.1,21.9,N/A,,Clear,230,2013-06-12 19:15:00
12:35 PM,75.2,21.2,13,30.20,10.0,WSW,12.7,33.4,N/A,,Clear,240,2013-06-12 19:35:00
12:55 PM,75.2,21.2,13,30.20,10.0,SW,8.1,28.8,N/A,,Clear,230,2013-06-12 19:55:00
1:15 PM,75.2,21.2,13,30.20,10.0,West,17.3,31.1,N/A,,Clear,270,2013-06-12 20:15:00
1:35 PM,75.2,23.0,14,30.19,10.0,West,23.0,33.4,N/A,,Clear,270,2013-06-12 20:35:00
1:55 PM,75.2,23.0,14,30.19,10.0,West,20.7,28.8,N/A,,Clear,260,2013-06-12 20:55:00
2:15 PM,75.2,23.0,14,30.19,10.0,WSW,17.3,26.5,N/A,,Clear,250,2013-06-12 21:15:00
2:35 PM,75.2,23.0,14,30.18,10.0,West,25.3,35.7,N/A,,Clear,270,2013-06-12 21:35:00
2:55 PM,75.2,24.8,15,30.17,10.0,WSW,18.4,32.2,N/A,,Clear,250,2013-06-12 21:55:00
3:15 PM,75.2,24.8,15,30.17,10.0,West,24.2,34.5,N/A,,Clear,280,2013-06-12 22:15:00
3:35 PM,75.2,26.6,17,30.16,10.0,WSW,23.0,35.7,N/A,,Clear,240,2013-06-12 22:35:00
3:55 PM,75.2,26.6,17,30.16,10.0,West,27.6,39.1,N/A,,Clear,260,2013-06-12 22:55:00
4:15 PM,75.2,26.6,17,30.14,10.0,SW,19.6,38.0,N/A,,Clear,230,2013-06-12 23:15:00
4:35 PM,73.4,24.8,16,30.14,10.0,WSW,20.7,35.7,N/A,,Clear,240,2013-06-12 23:35:00
4:55 PM,73.4,24.8,16,30.14,10.0,West,26.5,38.0,N/A,,Clear,260,2013-06-12 23:55:00
5:15 PM,71.6,24.8,17,30.14,10.0,SW,23.0,32.2,N/A,,Clear,230,2013-06-13 00:15:00
5:35 PM,71.6,24.8,17,30.14,10.0,SSW,8.1,28.8,N/A,,Clear,210,2013-06-13 00:35:00
5:55 PM,71.6,23.0,16,30.15,10.0,SW,4.6,24.2,N/A,,Clear,220,2013-06-13 00:55:00
6:15 PM,71.6,24.8,17,30.16,10.0,West,9.2,20.7,N/A,,Scattered Clouds,260,2013-06-13 01:15:00
6:35 PM,69.8,23.0,17,30.15,10.0,West,18.4,38.0,N/A,,Clear,270,2013-06-13 01:35:00
6:55 PM,68.0,26.6,21,30.15,10.0,West,23.0,32.2,N/A,,Clear,270,2013-06-13 01:55:00
7:15 PM,68.0,26.6,21,30.16,10.0,West,17.3,26.5,N/A,,Clear,270,2013-06-13 02:15:00
7:35 PM,66.2,26.6,23,30.16,10.0,West,19.6,29.9,N/A,,Clear,270,2013-06-13 02:35:00
7:55 PM,64.4,24.8,22,30.17,10.0,West,15.0,21.9,N/A,,Clear,270,2013-06-13 02:55:00
8:15 PM,64.4,23.0,21,30.16,10.0,WNW,13.8,27.6,N/A,,Clear,290,2013-06-13 03:15:00
8:35 PM,64.4,21.2,19,30.16,10.0,West,20.7,27.6,N/A,,Clear,270,2013-06-13 03:35:00
8:55 PM,64.4,19.4,18,30.15,10.0,WSW,24.2,33.4,N/A,,Clear,250,2013-06-13 03:55:00
9:15 PM,62.6,21.2,20,30.16,10.0,WSW,6.9,24.2,N/A,,Clear,240,2013-06-13 04:15:00
9:35 PM,62.6,21.2,20,30.16,10.0,SSW,10.4,18.4,N/A,,Clear,200,2013-06-13 04:35:00
9:55 PM,62.6,21.2,20,30.16,10.0,South,16.1,28.8,N/A,,Clear,170,2013-06-13 04:55:00
10:15 PM,60.8,21.2,22,30.17,10.0,ESE,4.6,-,N/A,,Clear,120,2013-06-13 05:15:00
10:35 PM,60.8,23.0,23,30.16,10.0,Calm,Calm,-,N/A,,Clear,0,2013-06-13 05:35:00
10:55 PM,59.0,23.0,25,30.16,10.0,WNW,8.1,-,N/A,,Clear,290,2013-06-13 05:55:00
11:15 PM,57.2,24.8,29,30.16,10.0,Calm,Calm,-,N/A,,Clear,0,2013-06-13 06:15:00
11:35 PM,59.0,21.2,23,30.16,10.0,SSW,12.7,24.2,N/A,,Clear,210,2013-06-13 06:35:00
11:55 PM,60.8,19.4,20,30.15,10.0,SSW,20.7,32.2,N/A,,Clear,210,2013-06-13 06:55:00